sat.trackr.live / text

‹ back to catalog

FOSSASAT-2E19 (TAT-E)

NORAD 62676 · 2025-009BV

PAYLOAD ACTIVE UNKNOWN

§ Identity

Operator
Country
SPN
Launch date
2025-01-14
Launch site
AFWTR
Launch vehicle
Mass (kg)
RCS (m²)

External: N2YO · Heavens-Above · Gunter

§ Orbital elements

Epoch: 2026-09-22T17:09:53.539200Z

Period
94.64 min
Inclination
97.3893°
Eccentricity
0.0005268
Mean motion
15.21582318 rev/d
Perigee alt
497.4 km
Apogee alt
504.7 km
Semi-major
6,879.2 km
B*
8.5479e-5
RAAN
342.2424°
Arg perigee
15.2900°
Mean anomaly
344.8495°
Rev number
9,352

§ Raw data

FOSSASAT-2E19 (TAT-E)1 62676U 25009BV  26265.71520300  .00001859  00000+0  85479-4 0  99912 62676  97.3893 342.2424 0005268  15.2900 344.8495 15.21582318 93529

JSON: /api/v1/satellites/62676 · /tle

For live sub-satellite position, see the globe view (requires WebGL).

§ Visibility from observer

Set your observer location to see the next 7 days of passes ≥ 10°. The values pass through the URL so the page stays shareable.

No JS? Fill the form by hand. The geolocation button needs JavaScript.

§ Radio — SatNOGS DB

ModeDescriptionDownlinkUplink
LoRa Mode U - LoRa 401.700 MHz

1 transmitter · refreshed weekly from db.satnogs.org